Regional Weather Roundup
Issued by NWS Huntsville, AL

Home | Current Version | Previous Version | Text Only | Print | Product List | Glossary On
Versions: 1 2 3 4 5 6 7 8 9 10 11 12 13 14 15 16 17 18 19 20 21 22 23 24 25 26 27 28 29 30 31 32 33 34 35 36 37 38 39 40 41 42 43 44 45 46 47 48 49 50
000
ASUS44 KHUN 241910
RWRHUN

WEATHER ROUNDUP FOR THE TENNESSEE VALLEY
NATIONAL WEATHER SERVICE HUNTSVILLE AL
200 PM CDT TUE APR 24 2018

ALZ001>004-242000-
NORTHWEST ALABAMA

CITY           SKY/WX    TMP DP  RH WIND       PRES   REMARKS
SHOALS AIRPORT CLOUDY    64  54  69 NW12      29.95F
$$

ALZ005>007-016-242000-
NORTH CENTRAL ALABAMA

CITY           SKY/WX    TMP DP  RH WIND       PRES   REMARKS
DECATUR AP     PTSUNNY   66  55  67 W14       29.92F
HUNTSVILLE AP  PTSUNNY   66  57  72 NW13      29.92S
MERIDIANVILLE  PTSUNNY   67  55  67 W10G17    29.90F
REDSTONE ARSN  PTSUNNY   66  54  65 NW6       29.90F
VINEMONT AP    CLOUDY    62  53  73 NW6       29.96S
$$

ALZ008>010-242000-
NORTHEAST ALABAMA

CITY           SKY/WX    TMP DP  RH WIND       PRES   REMARKS
ALBERTVILLE    PTSUNNY   63  57  82 NW6       29.91F
FORT PAYNE     CLOUDY    66  50  55 NW8       29.88S
$$

TNZ076-096-097-242000-
SOUTHEASTERN MIDDLE TENNESSEE

CITY           SKY/WX    TMP DP  RH WIND       PRES   REMARKS
TULLAHOMA      CLOUDY    63  54  72 NW10G17   29.90S
WINCHESTER     PTSUNNY   64  54  68 NW5G12    29.90S
$$

...SURROUNDING SITES...

CITY           SKY/WX    TMP DP  RH WIND       PRES   REMARKS
ATLANTA        PTSUNNY   67  59  75 W15G22    29.88S
ANNISTON       CLOUDY    65  55  70 SW7       29.91F
BIRMINGHAM     CLOUDY    65  56  72 W5        29.95S
CHATTANOOGA    PTSUNNY   70  52  52 W10       29.86F
CORINTH        CLOUDY    64  55  72 NW8       29.97R
DALTON         CLOUDY    68  54  60 N5        29.87F
GADSDEN        CLOUDY    65  57  75 W10       29.92S
GOLDEN TRNGL   CLOUDY    66  57  72 W8        29.98F
HALEYVILLE     CLOUDY    64  55  72 N9        29.96F
JACKSON TN     CLOUDY    63  57  81 NW9       29.97S
MEMPHIS        CLOUDY    65  57  75 NW8       30.00S
NASHVILLE      CLOUDY    64  55  72 VRB7      29.91F
ROME           HVY RAIN  65  58  78 NW6       29.87S
SAVANNAH       CLOUDY    63  55  77 NW5       29.96S
SELMER         CLOUDY    63  54  72 VRB6G13   29.96S
TUPELO         CLOUDY    66  52  60 NW7       29.97S
TUSCALOOSA     LGT RAIN  65  58  78 NW6       29.96S
$$

...GULF COAST WEATHER...

CITY           SKY/WX    TMP DP  RH WIND       PRES   REMARKS
GULFPORT       PTSUNNY   78  55  44 W12       29.95F
PASCAGOULA     PTSUNNY   76  59  55 SW8       29.95F
MOBILE         PTSUNNY   76  55  48 W14G20    29.96F
GULF SHORES    MOCLDY    72  60  64 SW10G21   29.96F
PENSACOLA      PTSUNNY   73  59  61 SW16      29.94
DESTIN         PTSUNNY   73  57  57 SW8G20    29.94F
PANAMA CITY    FAIR      71  59  66 W16       29.95F
APPALACHICOLA  FAIR      75  56  51 NW16G26   29.95F
$$




USA.gov is the U.S. government's official web portal to all federal, state and local government web resources and services.